INTELSAT 902 (IS-902)

Last updated on Jan. 27, 2020, 4:38 a.m. UTC

1 26900U 01039A   20026.33452037 -.00000012  00000-0  00000-0 0  9991
2 26900   0.2815  98.6302 0004858 224.8617 286.8144  1.00062688 67319
UTC
Height (km)
Latitude
Longitude
Inclination
Orbital Period
UTC large
Height (km)
Speed (km/s)
/
Latitude / Longitude
Inclination (degrees)
Orbital Period (minutes)
Azimuth
Elevation
Range (km)
Doppler Factor
iOS Compass Heading
iOS Angle

Next 30 passes for location: Hong Kong

Rise time Rise Azimuth (degrees) Set time Set Azimuth (degrees) Duration Max altitude (degrees)

No matching passes for this satellites